Wind_Speed
13 14 8 11 8 7 9 7 11 11 9 10 10 9 14 17 13 8 17 15 17 16 15 15 15 14 13 13 14 15 16 15 15 16 17 16 16 17 16 14 13 13 13 13 13 12 12 12 12
6 10 12 13 13 7 5 9 11 10 14 9 10 4 11 13 10 20 18 18 17 16 15 14 16 15 14 14 15 17 16 16 15 16 16 15 14 14 12 11 10 11 10 10 10 10 10 10 10
10 11 15 11 11 3 17 12 11 11 10 9 6 9 10 9 14 17 17 20 16 17 15 15 17 16 15 15 16 17 16 15 15 14 14 13 12 10 9 8 7 7 7 7 7 7 7 7 8
8 15 14 11 16 14 6 13 10 14 11 6 8 12 10 10 10 11 20 19 17 15 15 18 18 17 16 16 17 16 14 14 13 13 12 11 10 8 6 5 4 5 4 4 4 4 5 6 8
11 14 12 18 12 1 4 4 9 13 8 10 9 14 10 6 12 20 21 18 18 15 15 17 18 17 17 17 17 16 13 13 12 11 11 9 8 6 4 3 2 2 2 3 3 4 4 5 7
18 19 14 16 10 7 1 4 4 6 8 6 8 15 7 11 18 20 19 18 18 17 15 15 18 18 18 17 17 15 13 12 12 11 9 8 6 4 3 2 1 2 3 4 5 6 5 5 6
18 14 17 22 7 6 3 7 10 11 13 6 13 10 12 16 19 19 19 17 16 18 15 15 16 18 18 18 17 15 13 12 11 10 9 7 5 3 2 0 1 3 5 5 6 6 6 6 6
21 12 22 20 11 3 6 10 10 7 14 7 3 8 14 24 23 20 19 18 15 15 14 14 14 13 13 14 16 16 14 12 11 9 7 5 3 0 1 2 3 3 4 5 5 5 6 6 6
17 14 16 22 15 2 11 14 8 5 11 8 5 9 24 27 24 21 22 20 17 15 15 14 13 13 12 10 13 14 13 11 9 7 5 5 3 3 5 6 4 5 5 5 5 5 6 6 7
18 14 22 20 13 3 15 11 13 8 13 9 12 18 27 26 25 21 22 19 17 17 15 14 14 13 12 13 9 9 7 6 3 4 7 4 6 6 6 7 9 9 7 8 8 7 7 7 6
23 20 19 22 12 7 6 13 16 14 11 13 18 23 26 25 22 21 19 17 17 16 14 13 13 13 11 10 9 8 9 8 9 7 7 5 5 5 5 6 8 8 10 6 10 11 7 6 6
20 23 28 25 8 6 15 9 16 15 2 22 20 23 24 23 22 20 19 17 17 17 16 16 15 14 14 11 11 10 10 9 8 7 7 5 4 6 6 6 5 6 6 7 6 6 8 7 8
19 19 21 26 17 9 14 15 13 15 6 17 22 23 22 21 20 18 18 17 16 16 15 14 13 12 13 13 10 10 11 9 10 8 8 6 5 8 5 7 4 5 6 6 6 7 8 8 8
17 19 26 15 20 19 14 16 11 13 14 18 22 23 22 21 20 19 18 17 16 15 15 15 14 13 11 11 11 11 10 15 9 7 10 11 6 12 5 5 5 5 6 7 7 9 9 9 9
18 15 19 15 16 19 13 19 14 21 20 19 20 20 21 20 19 19 18 17 17 15 15 13 14 13 14 14 11 9 8 9 8 9 12 13 13 12 11 5 5 9 10 11 11 10 10 10 10
15 17 17 21 20 19 10 20 20 21 24 23 21 20 20 20 19 18 18 17 16 15 13 13 11 12 13 12 11 8 9 8 7 7 9 11 12 12 9 7 12 12 12 12 14 13 11 10 10
14 15 21 20 22 16 17 19 23 29 27 26 25 22 22 22 20 20 18 18 16 15 14 12 12 11 11 12 11 10 11 7 6 6 8 12 12 11 11 13 16 15 14 14 16 14 11 8 9
14 18 16 17 17 17 19 20 17 23 25 23 24 23 23 24 25 22 19 18 16 15 14 16 12 16 16 12 9 8 7 6 5 7 13 11 12 12 10 13 15 14 18 15 13 10 8 7 8
21 15 12 15 11 20 19 19 22 24 25 24 24 24 24 25 23 22 21 18 18 17 17 18 17 16 12 11 9 8 8 7 7 11 11 12 12 12 12 8 10 10 10 9 6 3 5 5 3
16 15 17 16 15 13 14 20 20 22 23 26 25 24 25 25 26 25 23 22 20 19 19 17 15 19 16 11 12 11 11 7 11 12 11 12 12 11 13 9 7 6 2 4 3 3 4 5 5
16 17 17 18 15 18 16 19 22 23 31 22 23 26 26 27 29 27 26 24 21 19 18 18 16 16 14 13 18 18 13 9 6 7 8 11 9 8 7 8 5 6 5 4 3 5 7 6 7
17 17 18 18 17 17 19 17 22 23 23 24 26 26 27 29 29 27 26 24 21 19 17 16 16 15 15 17 10 11 7 6 8 5 6 5 6 7 6 5 5 4 3 4 3 5 8 10 7
17 17 18 17 18 21 25 15 18 19 25 24 26 32 33 33 31 29 26 23 20 18 16 16 16 15 14 13 12 11 9 11 7 6 6 6 5 5 4 4 4 5 4 6 6 6 8 8 8
12 14 19 17 15 18 21 21 20 19 20 21 21 30 32 33 32 28 25 21 19 17 16 15 15 15 13 12 12 11 12 10 9 8 6 6 5 4 5 5 6 7 7 6 6 8 8 9 7
19 16 13 17 16 17 21 22 21 22 19 21 12 25 30 36 35 30 25 22 20 18 16 15 15 14 13 12 11 11 11 10 10 8 7 8 5 4 4 6 7 5 6 7 7 8 8 8 8
21 15 12 23 19 19 20 21 22 21 15 6 9 4 4 18 28 28 23 21 18 18 16 14 14 14 13 13 12 11 10 8 7 8 8 6 6 4 5 6 7 7 6 6 8 6 7 7 7
18 17 20 18 19 20 22 26 25 10 11 5 2 7 11 19 25 25 22 20 19 18 16 15 14 14 13 13 12 11 10 9 11 8 8 8 8 5 5 5 6 6 6 7 7 5 6 7 6
22 19 20 15 21 24 20 22 3 7 1 7 4 4 10 17 22 24 23 21 19 17 15 14 14 13 13 11 11 9 9 8 7 8 10 9 9 7 5 5 4 5 6 6 7 4 5 6 5
19 16 16 17 13 16 14 11 7 3 9 3 4 9 13 16 20 22 23 21 19 17 16 14 14 13 12 11 10 9 8 7 7 7 8 8 9 7 6 4 3 4 4 5 5 6 5 5 5
18 20 11 6 6 9 12 15 12 11 7 3 7 11 19 19 20 21 21 22 20 18 16 15 14 14 15 15 13 9 7 6 5 7 9 9 9 7 7 6 5 4 4 5 4 6 4 4 4
Wind_Direction
323 342 310 263 245 199 171 252 73 109 131 70 107 32 68 43 16 100 138 133 140 139 141 140 134 131 131 131 134 132 126 120 117 115 114 113 111 108 104 99 93 85 81 82 79 73 65 60 57
295 291 281 269 248 325 293 105 128 104 80 120 106 156 69 62 58 131 129 139 142 138 137 140 136 135 137 137 137 132 128 122 120 121 120 117 112 109 105 98 88 81 80 77 75 70 63 57 52
297 277 277 241 260 169 239 94 123 112 142 158 104 51 47 85 120 138 142 141 145 138 137 157 143 143 143 144 142 137 133 130 127 129 128 126 123 117 109 100 90 75 74 68 67 62 58 53 47
280 260 248 253 280 199 68 140 139 145 163 149 135 86 94 89 135 150 143 143 139 140 148 153 148 148 150 151 150 145 140 138 137 137 139 139 137 131 116 97 76 72 74 73 54 47 46 42 36
256 265 265 255 245 116 345 97 172 158 122 140 169 124 105 98 131 138 144 144 143 145 151 156 154 155 157 158 158 155 150 146 147 148 147 149 145 139 122 108 88 79 33 24 12 13 19 27 36
250 248 266 257 258 88 202 168 198 109 131 117 148 108 112 136 141 145 145 149 147 148 144 160 161 162 165 165 165 165 163 158 157 158 157 159 157 147 140 129 88 16 10 356 348 351 359 9 21
245 257 247 269 214 181 178 178 197 186 160 171 144 136 142 158 156 151 149 152 155 142 161 155 165 170 170 172 172 176 174 171 172 172 172 168 166 163 177 187 332 350 352 350 349 350 357 4 15
244 256 269 263 277 293 104 176 182 190 80 134 167 165 163 163 159 153 153 156 162 158 157 148 163 170 168 182 181 181 183 183 185 186 185 178 151 183 331 313 305 339 352 0 9 13 16 19 18
236 256 251 248 234 72 139 166 151 106 141 162 165 158 154 158 158 158 157 158 159 163 156 170 159 172 170 180 198 191 189 189 193 198 199 179 59 306 320 279 296 324 346 355 358 7 17 17 14
232 237 244 252 274 225 170 177 158 184 156 154 128 118 148 157 161 163 166 169 170 164 169 172 169 175 169 178 206 182 203 197 199 222 241 209 241 213 205 285 325 320 326 343 346 342 358 7 318
222 243 247 256 297 315 275 193 151 206 177 166 147 151 155 161 167 170 172 173 170 169 173 176 174 178 181 179 189 190 204 196 222 219 222 239 228 268 295 286 308 351 329 321 329 320 330 292 299
229 240 254 269 247 220 264 200 158 211 33 153 159 161 161 166 171 172 171 169 168 169 176 178 184 181 177 193 189 197 194 206 203 226 234 252 255 262 259 260 266 297 285 299 301 295 293 312 300
237 238 246 253 270 233 253 264 192 166 147 144 159 165 167 169 172 170 164 168 170 171 176 175 182 180 188 180 194 194 199 198 212 216 234 202 232 241 251 253 275 276 287 293 297 297 292 304 304
244 245 254 242 234 243 234 233 169 150 153 151 162 171 171 172 169 167 168 168 169 172 172 180 173 181 184 179 188 194 184 205 193 196 219 222 216 235 248 276 279 285 298 294 299 292 301 294 295
254 262 238 236 236 243 223 241 196 168 172 164 170 171 172 172 173 173 173 171 169 170 174 177 178 178 182 194 184 177 178 182 186 218 228 230 227 242 232 247 264 268 283 289 294 296 298 299 292
232 236 250 214 219 224 211 233 195 170 180 173 170 174 178 175 179 178 176 175 175 178 175 173 180 189 179 183 178 176 176 176 182 204 229 232 238 244 233 248 256 270 280 288 285 294 301 297 285
211 242 222 256 182 218 207 241 238 177 187 180 174 180 183 182 184 184 182 183 181 180 183 178 174 176 180 192 181 182 196 170 188 201 229 230 236 239 246 259 271 283 279 281 284 285 289 307 301
227 213 250 225 179 204 220 229 151 180 189 190 180 183 189 192 190 187 186 188 188 185 188 188 180 193 201 184 183 177 180 178 187 214 236 238 247 250 245 266 267 269 273 274 278 277 294 316 309
289 297 285 260 233 196 221 238 178 186 194 188 202 189 195 199 197 197 193 193 195 194 198 213 201 216 209 212 202 195 191 196 223 245 246 247 251 256 251 268 270 263 259 266 265 239 336 338 352
267 265 268 278 280 265 229 229 245 178 202 196 198 201 198 198 198 197 194 192 198 204 201 199 200 215 206 199 190 199 199 194 224 240 248 253 257 256 251 248 246 199 257 223 202 176 115 13 14
253 260 266 265 260 235 260 259 251 229 196 210 208 207 207 204 197 197 197 198 196 197 196 195 199 220 196 199 202 203 217 234 231 243 244 253 255 255 248 233 215 184 169 178 164 115 143 57 22
257 255 248 263 269 258 210 253 238 233 243 194 206 206 207 209 204 202 200 198 197 200 197 194 193 197 192 201 199 195 195 207 192 168 207 233 242 238 225 207 203 195 154 151 137 121 97 99 62
261 268 268 258 246 261 254 255 263 231 230 219 203 211 207 206 205 203 200 198 199 197 193 187 184 189 198 187 190 199 185 197 177 172 165 191 186 172 165 159 153 143 106 113 109 112 108 97 75
286 276 262 260 267 254 250 256 255 250 242 254 240 198 212 207 201 199 196 195 194 192 185 177 171 173 175 175 179 169 185 167 177 164 144 135 126 119 127 126 134 126 99 105 103 96 95 88 102
254 244 256 245 233 245 244 247 254 260 256 242 315 204 204 205 191 185 183 188 187 186 182 174 168 163 161 156 158 158 159 161 166 152 161 154 148 132 130 126 106 104 120 113 96 90 87 91 89
311 296 271 280 276 275 266 247 246 246 221 131 171 195 246 180 171 173 181 183 184 182 176 168 158 152 148 146 145 147 145 148 161 155 167 158 166 140 116 120 127 124 111 104 90 78 72 78 56
287 284 291 303 291 288 281 282 278 156 91 27 319 189 219 160 158 167 172 178 178 176 173 167 158 151 146 143 140 137 144 144 166 149 135 146 140 117 109 114 114 110 107 105 73 87 82 77 71
279 275 284 274 275 268 273 275 344 77 1 39 63 82 125 149 158 162 166 168 168 169 166 161 154 148 142 136 129 127 126 126 128 133 139 141 142 133 106 105 106 113 106 103 106 64 79 86 82
314 309 313 281 308 290 276 281 33 334 26 41 112 135 153 164 159 160 157 157 157 160 163 155 150 144 137 132 131 125 128 124 132 134 133 139 138 131 117 100 92 98 101 98 112 100 89 80 59
278 296 7 319 309 277 273 272 85 351 29 258 119 139 154 158 156 155 154 151 152 157 154 149 146 139 136 141 134 129 112 105 106 144 154 152 148 150 144 146 148 140 127 121 121 120 100 84 64
Height
1518 1515 1517 1515 1511 1485 1522 1490 1471 1481 1486 1493 1499 1500 1506 1513 1512 1537 1537 1540 1543 1545 1543 1545 1546 1549 1551 1553 1555 1556 1557 1559 1560 1561 1562 1564 1565 1566 1567 1568 1569 1569 1569 1570 1569 1570 1570 1569 1569
1520 1520 1516 1507 1497 1505 1499 1475 1476 1480 1491 1497 1503 1505 1508 1521 1526 1531 1537 1541 1544 1545 1547 1546 1547 1550 1552 1554 1557 1558 1559 1561 1562 1563 1564 1566 1567 1568 1569 1570 1570 1571 1571 1571 1571 1571 1571 1571 1571
1518 1519 1513 1499 1484 1518 1518 1472 1481 1492 1496 1499 1503 1506 1515 1528 1532 1534 1537 1541 1544 1547 1549 1547 1548 1551 1553 1556 1558 1560 1561 1563 1564 1565 1566 1567 1568 1569 1570 1571 1572 1572 1572 1572 1572 1572 1572 1572 1572
1520 1515 1508 1494 1485 1478 1475 1476 1482 1491 1496 1499 1503 1515 1527 1531 1532 1535 1539 1543 1545 1548 1549 1547 1549 1552 1555 1557 1559 1561 1562 1564 1565 1566 1567 1568 1569 1570 1571 1573 1573 1573 1574 1574 1574 1574 1573 1573 1573
1518 1511 1497 1485 1483 1469 1475 1479 1481 1486 1496 1499 1503 1513 1528 1532 1533 1536 1539 1543 1547 1550 1549 1548 1550 1553 1556 1558 1560 1562 1563 1564 1566 1567 1568 1569 1570 1571 1572 1573 1574 1574 1574 1574 1574 1575 1574 1574 1574
1512 1503 1497 1485 1472 1470 1478 1481 1482 1488 1499 1501 1504 1515 1530 1533 1535 1538 1541 1544 1547 1551 1551 1549 1551 1553 1556 1559 1561 1563 1564 1565 1567 1568 1569 1570 1571 1572 1573 1574 1575 1575 1575 1575 1576 1575 1575 1575 1574
1509 1496 1491 1475 1476 1472 1474 1482 1486 1489 1496 1504 1503 1510 1529 1533 1535 1538 1541 1545 1548 1551 1552 1552 1552 1555 1557 1559 1561 1563 1565 1567 1568 1569 1570 1572 1573 1574 1574 1575 1575 1576 1576 1576 1576 1576 1575 1575 1575
1506 1498 1490 1477 1473 1475 1477 1482 1488 1489 1496 1507 1507 1510 1525 1529 1534 1537 1541 1545 1548 1550 1551 1554 1556 1558 1559 1561 1562 1564 1566 1567 1569 1570 1572 1573 1574 1575 1576 1576 1576 1577 1577 1576 1576 1576 1575 1575 1575
1503 1500 1492 1480 1472 1468 1480 1481 1490 1495 1502 1506 1509 1508 1518 1527 1532 1536 1540 1544 1547 1549 1553 1555 1559 1560 1565 1566 1564 1565 1567 1568 1570 1571 1573 1574 1575 1577 1577 1576 1577 1577 1577 1577 1577 1576 1575 1575 1574
1501 1494 1485 1470 1463 1466 1477 1479 1491 1499 1501 1506 1509 1515 1520 1526 1531 1535 1539 1542 1545 1549 1552 1555 1558 1560 1564 1565 1565 1568 1569 1570 1571 1574 1574 1575 1577 1577 1577 1577 1577 1576 1576 1576 1576 1576 1575 1574 1575
1496 1492 1478 1473 1469 1474 1477 1479 1488 1494 1496 1502 1511 1518 1521 1526 1530 1534 1537 1541 1544 1548 1552 1555 1557 1559 1563 1566 1567 1569 1571 1573 1572 1572 1573 1575 1576 1577 1577 1577 1574 1575 1575 1576 1575 1575 1575 1575 1575
1491 1488 1485 1475 1473 1482 1483 1479 1485 1494 1489 1495 1510 1518 1521 1525 1528 1531 1535 1539 1543 1547 1550 1554 1555 1557 1561 1565 1566 1568 1570 1571 1572 1572 1571 1573 1574 1575 1575 1577 1577 1577 1577 1576 1576 1575 1573 1573 1572
1485 1485 1482 1482 1479 1483 1485 1479 1479 1488 1498 1501 1510 1516 1520 1523 1527 1530 1534 1539 1543 1546 1549 1552 1554 1556 1559 1561 1565 1566 1568 1569 1570 1570 1569 1572 1574 1574 1574 1574 1574 1574 1574 1574 1574 1573 1571 1570 1571
1483 1484 1481 1479 1481 1483 1486 1482 1481 1495 1502 1506 1511 1514 1518 1521 1525 1530 1534 1538 1541 1545 1547 1550 1552 1553 1557 1560 1561 1563 1565 1564 1566 1566 1565 1566 1568 1568 1571 1571 1572 1571 1570 1570 1570 1570 1567 1566 1567
1485 1485 1478 1478 1480 1478 1484 1480 1486 1494 1502 1508 1511 1514 1517 1521 1526 1530 1534 1536 1540 1543 1545 1547 1550 1551 1554 1556 1558 1561 1561 1563 1563 1561 1561 1562 1564 1564 1566 1567 1567 1566 1566 1566 1565 1565 1565 1564 1564
1484 1483 1481 1470 1478 1479 1485 1482 1476 1492 1498 1503 1509 1514 1518 1521 1526 1530 1532 1535 1538 1540 1542 1545 1549 1549 1551 1553 1555 1558 1558 1560 1560 1559 1558 1560 1561 1562 1563 1564 1562 1562 1562 1562 1561 1561 1561 1559 1559
1474 1482 1475 1467 1463 1473 1480 1478 1464 1483 1491 1495 1503 1511 1517 1520 1524 1527 1530 1533 1535 1537 1539 1542 1545 1549 1549 1550 1554 1555 1554 1557 1557 1557 1556 1557 1558 1559 1560 1560 1559 1560 1559 1557 1557 1557 1555 1555 1554
1468 1467 1465 1461 1459 1467 1468 1474 1476 1484 1487 1491 1496 1505 1512 1516 1519 1523 1526 1529 1531 1533 1536 1538 1542 1543 1545 1549 1551 1553 1554 1555 1554 1554 1553 1554 1555 1556 1557 1556 1556 1556 1555 1554 1553 1553 1552 1552 1550
1461 1464 1459 1452 1451 1457 1464 1461 1462 1478 1481 1482 1494 1497 1504 1510 1515 1518 1521 1524 1527 1529 1531 1534 1537 1539 1542 1546 1551 1551 1553 1553 1550 1550 1551 1551 1552 1553 1554 1554 1552 1551 1550 1551 1550 1550 1551 1551 1550
1469 1473 1469 1457 1451 1455 1456 1460 1453 1463 1472 1471 1480 1488 1496 1505 1509 1513 1515 1518 1521 1524 1527 1530 1534 1535 1539 1544 1547 1550 1549 1548 1547 1546 1547 1547 1549 1550 1549 1551 1550 1549 1548 1549 1549 1549 1550 1550 1549
1472 1473 1467 1465 1454 1454 1461 1463 1456 1452 1459 1465 1470 1479 1488 1495 1502 1507 1511 1514 1517 1521 1523 1526 1530 1531 1536 1540 1540 1542 1543 1544 1546 1545 1545 1545 1547 1546 1546 1549 1549 1547 1547 1545 1547 1548 1546 1550 1548
1471 1460 1461 1465 1465 1470 1452 1473 1450 1448 1446 1453 1463 1469 1479 1489 1496 1502 1506 1510 1515 1519 1522 1524 1527 1529 1532 1534 1538 1540 1544 1546 1546 1546 1543 1543 1544 1544 1545 1547 1547 1546 1545 1544 1547 1546 1547 1543 1547
1464 1458 1459 1456 1463 1463 1455 1459 1443 1432 1439 1438 1448 1456 1464 1476 1487 1496 1503 1508 1514 1517 1520 1521 1523 1526 1529 1531 1536 1537 1542 1541 1543 1544 1543 1542 1543 1544 1546 1546 1546 1546 1547 1545 1546 1547 1544 1546 1549
1456 1460 1456 1456 1456 1466 1454 1453 1443 1432 1431 1430 1429 1441 1453 1463 1476 1490 1499 1506 1512 1516 1519 1520 1522 1525 1527 1530 1532 1535 1537 1541 1542 1543 1544 1545 1546 1545 1546 1545 1545 1545 1545 1546 1546 1545 1544 1545 1547
1455 1460 1470 1469 1462 1458 1437 1442 1431 1422 1418 1422 1426 1428 1439 1447 1461 1480 1494 1504 1511 1516 1519 1520 1521 1523 1525 1528 1530 1532 1536 1539 1541 1543 1546 1546 1548 1547 1545 1545 1546 1545 1545 1545 1546 1545 1545 1546 1547
1457 1457 1471 1479 1460 1438 1415 1429 1416 1403 1408 1420 1427 1434 1441 1442 1457 1477 1492 1502 1510 1515 1520 1522 1523 1524 1526 1528 1530 1533 1535 1539 1541 1543 1545 1547 1547 1547 1546 1545 1544 1545 1546 1547 1547 1547 1548 1548 1549
1467 1465 1451 1467 1465 1456 1431 1416 1403 1410 1425 1432 1432 1434 1440 1447 1461 1476 1490 1501 1509 1515 1520 1523 1525 1527 1529 1530 1532 1534 1537 1540 1539 1540 1543 1545 1545 1545 1547 1547 1546 1546 1546 1547 1549 1548 1549 1549 1551
1465 1457 1461 1451 1474 1472 1441 1430 1432 1435 1435 1441 1441 1441 1448 1457 1467 1478 1489 1500 1508 1515 1520 1524 1526 1528 1530 1532 1534 1536 1537 1538 1539 1540 1541 1544 1543 1545 1547 1548 1549 1548 1547 1548 1551 1551 1548 1549 1550
1465 1463 1468 1468 1471 1468 1467 1457 1443 1447 1447 1452 1448 1450 1457 1467 1476 1484 1491 1500 1509 1516 1521 1525 1527 1528 1531 1533 1535 1537 1538 1539 1539 1541 1541 1541 1543 1543 1546 1549 1552 1551 1549 1549 1550 1549 1550 1548 1549
1473 1474 1484 1492 1497 1491 1487 1461 1455 1461 1452 1459 1453 1456 1458 1469 1479 1489 1497 1501 1508 1516 1521 1525 1527 1528 1528 1530 1533 1535 1537 1539 1539 1538 1539 1541 1543 1544 1545 1545 1550 1552 1550 1549 1551 1549 1548 1548 1547